This is the latest recevied weather packets stored in our database for station/object SV3CQY. If no packets are shown the sender has not sent any weather packets the latest 10 day(s).
| Time | Temp. | Humidity | Pressure | Rain* | Wind** | Luminosity | Snow |
|---|---|---|---|---|---|---|---|
| 1777692634 | 12.22° C | 60% | 1017.4 hPa | 0 mm | - | - | - |
| 1777691730 | 12.22° C | 62% | 1017.4 hPa | 0 mm | - | - | - |
| 1777690830 | 11.67° C | 65% | 1017.4 hPa | 0 mm | - | - | - |
| 1777690208 | 11.67° C | 65% | 1017.3 hPa | 0 mm | - | - | - |
| 1777689612 | 11.67° C | 65% | 1017.2 hPa | 0 mm | - | - | - |
| 1777688714 | 11.67° C | 64% | 1017.3 hPa | 0 mm | - | - | - |
| 1777687228 | 12.22° C | 63% | 1017.3 hPa | 0 mm | - | - | - |
| 1777685429 | 11.67° C | 66% | 1017.4 hPa | 0 mm | - | - | - |
| 1777685111 | 12.22° C | 66% | 1017.4 hPa | 0 mm | - | - | - |
| 1777683312 | 12.22° C | 61% | 1017.4 hPa | 0 mm | - | - | - |
| 1777681213 | 11.67° C | 64% | 1017.5 hPa | 0 mm | - | - | - |
| 1777669508 | 12.22° C | 66% | 1019 hPa | 0 mm | - | - | - |
| 1777668909 | 12.22° C | 64% | 1018.9 hPa | 0 mm | - | - | - |
| 1777666814 | 12.22° C | 65% | 1018.8 hPa | 0 mm | - | - | - |
| 1777663836 | 12.22° C | 70% | 1019.1 hPa | 0 mm | - | - | - |
| 1777661412 | 12.78° C | 68% | 1018.7 hPa | 0 mm | - | - | - |
| 1777659327 | 13.33° C | 66% | 1018.5 hPa | 0 mm | - | - | - |
| 1777657539 | 12.78° C | 67% | 1018.1 hPa | 0 mm | - | - | - |
| 1777656010 | 12.78° C | 66% | 1017.9 hPa | 0 mm | - | - | - |
| 1777654830 | 12.78° C | 69% | 1017.8 hPa | 0 mm | - | - | - |
| 1777651228 | 12.78° C | 71% | 1017.9 hPa | 0 mm | - | - | - |
| 1777650011 | 12.78° C | 72% | 1017.9 hPa | 0 mm | - | - | - |
| 1777645836 | 12.78° C | 72% | 1017.8 hPa | 0 mm | - | - | - |
| 1777644613 | 12.78° C | 73% | 1017.9 hPa | 0 mm | - | - | - |
| 1777643130 | 12.78° C | 77% | 1018 hPa | 0.76 mm | - | - | - |
* Rain latest hour (hover to see other rain measurements)
** Current wind speed in m/s (hover to see current wind gust speed)